Simultaneous Nadir Overpasses (SNOs) Predictions

Prediction of SNOs between AQUA and NPP Satellite Orbit:

Table of predicted SNOs for the next 14.0 days since TLE Epoch: 6/3/2016
Index Date (AQUA) Time (AQUA) Lat,Lon (AQUA) SZA (AQUA ) Date (NPP) Time (NPP) Lat,Lon (NPP) SZA (NPP ) Distance(km) Time Diff (sec)
1 06/03/2016 21:01:08 70.25, 92.12 81.48 06/03/2016 20:59:54 70.33, 91.79 81.57 15.36 74
2 06/03/2016 21:49:07 -74.94, -91.23 103.60 06/03/2016 21:49:09 -74.93, -91.28 103.59 1.51 2
3 06/03/2016 22:34:33 81.65, 147.64 62.72 06/03/2016 22:35:46 81.05, 146.77 62.46 68.03 73
4 06/06/2016 13:16:25 74.06,-145.11 77.14 06/06/2016 13:15:36 74.06,-145.12 77.18 0.26 49
5 06/06/2016 14:05:26 -75.40, 25.89 104.38 06/06/2016 14:05:54 -75.40, 25.87 104.40 0.70 28
6 06/09/2016 05:32:41 74.68, -27.77 76.25 06/09/2016 05:32:18 74.68, -27.74 76.26 0.92 23
7 06/09/2016 06:21:43 -75.94, 143.36 105.22 06/09/2016 06:22:37 -75.95, 143.39 105.27 0.97 54
8 06/11/2016 21:00:09 -73.35, -82.54 102.44 06/11/2016 20:58:56 -73.34, -82.58 102.36 1.36 73
9 06/11/2016 21:49:06 74.82, 88.47 75.93 06/11/2016 21:49:10 74.81, 88.39 75.95 2.83 4
10 06/11/2016 22:33:18 -79.81, -7.30 122.02 06/11/2016 22:34:31 -79.15, -9.93 122.34 90.03 73
11 06/14/2016 13:16:19 -74.21, 35.23 103.50 06/14/2016 13:15:32 -74.21, 35.27 103.47 1.07 47
12 06/14/2016 14:05:19 75.50,-153.81 75.04 06/14/2016 14:05:49 75.50,-153.80 75.01 0.07 30
13 06/17/2016 05:32:41 -74.49, 151.78 10
